This demonstration page uses our WeatherBlox Daily Observations layout. Learn more.

40.92945, -100.16068

Hourly Observations for December 11, 2017

Temp ( °F °C ) Dew Point ( °F °C ) Humidity (%) Winds ( mph kmh ) Pressure ( in mb ) Visibility ( mi km ) Precip ( " mm )
12:15 am 00:15 Clear 29 -1.5 14 -9.9 53 53 WNW 10 17 30.24 1024 10 16.09344 0 0
12:35 am 00:35 Clear 31 -0.8 15 -9.5 52 52 WNW 12 19 30.21 1023 10 16.09344 0 0
12:55 am 00:55 Clear 33 0.4 14 -10 46 46 WNW 9 15 30.21 1023 10 16.09344 0 0
1:15 am 01:15 Clear 30 -0.9 14 -10 51 51 WNW 10 17 30.21 1023 10 16.09344 0 0
1:35 am 01:35 Clear 33 0.3 14 -9.9 47 47 WNW 12 19 30.21 1023 10 16.09344 0 0
1:55 am 01:55 Clear 32 0 14 -10 47 47 WNW 12 19 30.21 1023 10 16.09344 0 0
2:15 am 02:15 Clear 30 -1 15 -9.7 52 52 WNW 10 17 30.21 1023 10 16.09344 0 0
2:35 am 02:35 Clear 31 -0.6 15 -9.5 51 51 WNW 10 17 30.21 1023 10 16.09344 0 0
2:55 am 02:55 Clear 30 -1.1 15 -9.5 53 53 NW 10 17 30.21 1023 10 16.09344 0 0
3:15 am 03:15 Clear 30 -1.1 15 -9.3 54 54 NW 10 17 30.21 1023 10 16.09344 0 0
3:35 am 03:35 Clear 30 -1.2 15 -9.2 55 55 NW 9 15 30.21 1023 10 16.09344 0 0
3:55 am 03:55 Clear 30 -1.2 16 -9 56 56 WNW 10 17 30.21 1023 10 16.09344 0 0
4:15 am 04:15 Clear 30 -1.1 16 -9.1 55 55 WNW 12 19 30.21 1023 10 16.09344 0 0
4:35 am 04:35 Clear 32 0.1 16 -9 51 51 WNW 14 22 30.21 1023 10 16.09344 0 0
4:55 am 04:55 Clear 34 1.2 15 -9.3 46 46 WNW 17 28 30.21 1023 10 16.09344 0 0
5:15 am 05:15 Clear 35 1.5 15 -9.5 44 44 WNW 15 24 30.21 1023 10 16.09344 0 0
5:35 am 05:35 Clear 34 1 15 -9.5 46 46 WNW 15 24 30.21 1023 10 16.09344 0 0
5:55 am 05:55 Clear 35 1.6 15 -9.6 44 44 WNW 14 22 30.18 1022 10 16.09344 0 0
6:15 am 06:15 Clear 34 1.3 15 -9.2 46 46 W 12 19 30.21 1023 10 16.09344 0 0
6:35 am 06:35 Clear 35 1.7 15 -9.5 44 44 WNW 10 17 30.24 1024 10 16.09344 0 0
6:55 am 06:55 Clear 36 2.3 15 -9.2 43 43 W 13 20 30.21 1023 10 16.09344 0 0
7:15 am 07:15 Clear 38 3.3 16 -9.1 40 40 W 14 22 30.18 1022 10 16.09344 0 0
7:35 am 07:35 Clear 39 3.9 15 -9.3 38 38 WNW 13 20 30.18 1022 10 16.09344 0 0
7:55 am 07:55 Sunny 37 3 16 -9 41 41 WNW 12 19 30.18 1022 10 16.09344 0 0
8:15 am 08:15 Sunny 38 3.4 16 -8.7 41 41 WNW 14 22 30.18 1022 10 16.09344 0 0
8:35 am 08:35 Sunny 40 4.3 16 -9 38 38 WNW 17 28 30.18 1022 10 16.09344 0 0
8:55 am 08:55 Sunny 42 5.7 16 -8.8 35 35 WNW 17 28 30.15 1021 10 16.09344 0 0
9:15 am 09:15 Sunny 46 7.5 17 -8.4 32 32 NW 20 31 30.18 1022 10 16.09344 0 0
9:35 am 09:35 Sunny 47 8.1 17 -8.4 30 30 NW 25 41 30.15 1021 10 16.09344 0 0
9:55 am 09:55 Sunny 46 7.8 17 -8.3 31 31 NW 23 37 30.18 1022 10 16.09344 0 0
10:15 am 10:15 Sunny 46 8 17 -8.2 31 31 NW 20 31 30.15 1021 10 16.09344 0 0
10:35 am 10:35 Sunny 49 9.2 18 -8 29 29 NW 18 30 30.15 1021 10 16.09344 0 0
10:55 am 10:55 Sunny 52 11 19 -7.5 27 27 NNW 31 50 30.18 1022 10 16.09344 0 0
11:15 am 11:15 Sunny 53 11.5 18 -7.6 26 26 NNW 37 59 30.12 1020 10 16.09344 0 0
11:35 am 11:35 Sunny 53 11.5 19 -7.5 26 26 NNW 33 54 30.15 1021 10 16.09344 0 0
11:55 am 11:55 Sunny 54 12 20 -6.9 26 26 NNW 35 56 30.12 1020 10 16.09344 0 0
12:15 pm 12:15 Sunny 53 11.8 20 -6.9 27 27 NNW 29 46 30.12 1020 10 16.09344 0 0
12:35 pm 12:35 Sunny 53 11.7 20 -6.4 28 28 NNW 28 44 30.12 1020 10 16.09344 0 0
12:55 pm 12:55 Sunny 53 11.5 22 -5.6 30 30 NNW 38 61 30.15 1021 10 16.09344 0 0
1:15 pm 13:15 Sunny 52 10.9 22 -5.5 31 31 N 32 52 30.18 1022 10 16.09344 0 0
1:35 pm 13:35 Sunny 52 10.9 22 -5.3 32 32 NNW 29 46 30.18 1022 10 16.09344 0 0
1:55 pm 13:55 Sunny 52 11 23 -5.2 32 32 NNW 30 48 30.18 1022 10 16.09344 0 0
2:15 pm 14:15 Sunny 51 10.7 23 -5 33 33 NNW 31 50 30.18 1022 10 16.09344 0 0
2:35 pm 14:35 Sunny 50 10 24 -4.5 36 36 N 28 44 30.21 1023 10 16.09344 0 0
2:55 pm 14:55 Sunny 49 9.6 25 -3.9 39 39 N 31 50 30.21 1023 10 16.09344 0 0
3:15 pm 15:15 Sunny 49 9.2 26 -3.5 41 41 NNW 30 48 30.21 1023 10 16.09344 0 0
3:35 pm 15:35 Sunny 47 8.5 26 -3.6 43 43 NNW 30 48 30.27 1025 10 16.09344 0 0
3:55 pm 15:55 Sunny 46 7.8 26 -3.3 46 46 NNW 25 41 30.27 1025 10 16.09344 0 0
4:15 pm 16:15 Sunny 45 7 26 -3.1 49 49 N 25 41 30.3 1026 10 16.09344 0 0
4:35 pm 16:35 Partly Cloudy 44 6.5 27 -2.8 52 52 N 20 31 30.3 1026 10 16.09344 0 0
4:55 pm 16:55 Cloudy 43 6.2 27 -2.7 53 53 N 16 26 30.3 1026 10 16.09344 0 0
5:15 pm 17:15 Partly Cloudy 41 5.1 27 -3 56 56 NNW 13 20 30.36 1028 10 16.09344 0 0
5:35 pm 17:35 Clear 39 4 26 -3.1 60 60 N 12 19 30.36 1028 10 16.09344 0 0
5:55 pm 17:55 Mostly Cloudy 41 5.1 28 -2.5 58 58 NNW 15 24 30.39 1029 10 16.09344 0 0
6:15 pm 18:15 Cloudy 41 4.8 28 -2.5 60 60 NNW 12 19 30.39 1029 10 16.09344 0 0
6:35 pm 18:35 Mostly Cloudy 38 3.1 27 -3 65 65 NNW 10 17 30.42 1030 10 16.09344 0 0
6:55 pm 18:55 Partly Cloudy 38 3.4 28 -2.5 66 66 N 13 20 30.42 1030 10 16.09344 0 0
7:15 pm 19:15 Partly Cloudy 39 4.1 28 -2.3 63 63 N 14 22 30.39 1029 10 16.09344 0 0
7:35 pm 19:35 Partly Cloudy 38 3.4 28 -2.3 67 67 NNW 10 17 30.45 1031 10 16.09344 0 0
7:55 pm 19:55 Clear 33 0.8 26 -3.5 73 73 NNW 9 15 30.48 1032 10 16.09344 0 0
8:15 pm 20:15 Clear 32 0 26 -3.6 77 77 NNW 8 13 30.48 1032 10 16.09344 0 0
8:35 pm 20:35 Partly Cloudy 31 -0.3 25 -3.8 78 78 NW 8 13 30.48 1032 10 16.09344 0 0
8:55 pm 20:55 Cloudy 34 1.1 27 -2.6 77 77 NW 7 11 30.45 1031 10 16.09344 0 0
9:15 pm 21:15 Cloudy 36 2.1 28 -2.4 72 72 NW 8 13 30.45 1031 10 16.09344 0 0
9:35 pm 21:35 Cloudy 37 2.7 28 -2.2 70 70 NW 7 11 30.45 1031 10 16.09344 0 0
9:55 pm 21:55 Cloudy 37 3 28 -2 70 70 NW 6 9 30.48 1032 10 16.09344 0 0
10:15 pm 22:15 Cloudy 38 3.5 28 -2 68 68 NNW 6 9 30.45 1031 10 16.09344 0 0
10:35 pm 22:35 Cloudy 38 3.3 28 -2 69 69 N 8 13 30.45 1031 10 16.09344 0 0
10:55 pm 22:55 Cloudy 39 3.9 28 -2 66 66 NNW 8 13 30.48 1032 10 16.09344 0 0
11:15 pm 23:15 Cloudy 39 4.1 28 -2.1 64 64 NNW 8 13 30.45 1031 10 16.09344 0 0
11:35 pm 23:35 Cloudy 39 4.1 28 -2.4 63 63 N 14 22 30.45 1031 10 16.09344 0 0
11:55 pm 23:55 Mostly Cloudy 37 2.8 27 -2.8 67 67 NNW 9 15 30.48 1032 10 16.09344 0 0

Powered by AerisWeather